User: anonymous
Location: Wawayanda State Park
(41.1833°N, 74.4333°W)
Time: 22:21:00
(UTC-04:00)
Language:

Landsat 7 - Orbit

View from above orbital plane
View from above orbital plane
View from above satellite
View from above satellite

Ground track
Ground track

The orbit data is extracted from the following two-line orbital elements,

1 25682U 99020A   14232.77472090  .00000285  00000-0  73269-4 0  5342
2 25682 098.2118 301.5159 0000677 105.3923 254.7365 14.57116271816395
Epoch (UTC): 20 August 2014 18:35:35
Eccentricity: 0.0000677
inclination: 98.2118°
perigee height: 702 km
apogee height: 703 km
right ascension of ascending node: 301.5159°
argument of perigee: 105.3923°
revolutions per day: 14.57116271
mean anomaly at epoch: 254.7365°
orbit number at epoch: 81639

The dashed part of the orbit path shows where the satellite is in the earth's shadow,  

DLR